Location: Gro�wechsungen
(51.4926°N, 10.6901°E)
Time: 14:31:01
(UTC+00:00)

Cosmos 2082 Rocket - Pass Details

Date: 21 January 2021
Orbit: 832 x 854 km, 71.0° (Epoch: 04 March)

Event Time Altitude Azimuth Distance (km) Brightness Sun altitude
Rises 19:17:27 0° 329° (NNW) 3,438 5.9 -32.1°
Reaches altitude 10° 19:19:55 10° 330° (NNW) 2,498 5.0 -32.5°
Enters shadow 19:23:22 38° 333° (NNW) 1,282 3.3 -33.0°
